Time,TemperatureF,DewpointF,PressureIn,WindDirection,WindDirectionDegrees,WindSpeedMPH,WindSpeedGustMPH,Humidity,HourlyPrecipIn,Conditions,Clouds,dailyrainin,SoftwareType,DateUTC
2017-02-25 00:06:00,59.3,54.0,29.76,SW,219,3.0,10.0,82,0.00,,,0.00,weatherlink.com 1.10,2017-02-25 05:06:00,
2017-02-25 00:21:00,59.3,54.0,29.76,SW,231,0.0,11.0,82,0.00,,,0.00,weatherlink.com 1.10,2017-02-25 05:21:00,
2017-02-25 00:35:00,59.2,54.0,29.75,SW,218,5.0,8.0,82,0.00,,,0.00,weatherlink.com 1.10,2017-02-25 05:35:00,
2017-02-25 00:51:00,59.1,54.0,29.75,NE,54,3.0,7.0,83,0.00,,,0.00,weatherlink.com 1.10,2017-02-25 05:51:00,
2017-02-25 01:06:00,59.0,54.0,29.74,ENE,77,3.0,7.0,84,0.00,,,0.00,weatherlink.com 1.10,2017-02-25 06:06:00,
2017-02-25 01:21:00,58.9,54.0,29.73,SW,225,5.0,12.0,85,0.00,,,0.00,weatherlink.com 1.10,2017-02-25 06:21:00,
2017-02-25 01:36:00,59.3,55.0,29.74,South,186,10.0,13.0,85,0.00,,,0.00,weatherlink.com 1.10,2017-02-25 06:36:00,
2017-02-25 01:51:00,59.5,55.0,29.74,South,187,6.0,14.0,85,0.00,,,0.00,weatherlink.com 1.10,2017-02-25 06:51:00,
2017-02-25 02:06:00,59.5,55.0,29.75,SSW,201,0.0,8.0,86,0.00,,,0.00,weatherlink.com 1.10,2017-02-25 07:06:00,
2017-02-25 02:21:00,59.4,55.0,29.74,SW,222,2.0,8.0,86,0.00,,,0.00,weatherlink.com 1.10,2017-02-25 07:21:00,
2017-02-25 02:36:00,59.3,56.0,29.74,WSW,238,3.0,6.0,87,0.00,,,0.00,weatherlink.com 1.10,2017-02-25 07:36:00,
2017-02-25 02:51:00,59.1,55.0,29.73,SSE,159,2.0,7.0,87,0.00,,,0.00,weatherlink.com 1.10,2017-02-25 07:51:00,
2017-02-25 03:06:00,59.2,56.0,29.72,SE,131,2.0,9.0,88,0.00,,,0.00,weatherlink.com 1.10,2017-02-25 08:06:00,
2017-02-25 03:21:00,59.3,56.0,29.71,SSW,204,2.0,8.0,88,0.00,,,0.00,weatherlink.com 1.10,2017-02-25 08:21:00,
2017-02-25 03:36:00,59.8,56.0,29.71,SSW,208,2.0,7.0,88,0.00,,,0.00,weatherlink.com 1.10,2017-02-25 08:36:00,
2017-02-25 03:51:00,59.8,56.0,29.71,SSW,211,1.0,7.0,88,0.00,,,0.00,weatherlink.com 1.10,2017-02-25 08:51:00,
2017-02-25 04:06:00,60.0,57.0,29.70,SW,231,1.0,6.0,88,0.00,,,0.00,weatherlink.com 1.10,2017-02-25 09:06:00,
2017-02-25 04:21:00,60.2,56.0,29.70,SSE,163,4.0,7.0,87,0.00,,,0.00,weatherlink.com 1.10,2017-02-25 09:21:00,
2017-02-25 04:36:00,60.5,57.0,29.70,SSW,201,2.0,10.0,87,0.00,,,0.00,weatherlink.com 1.10,2017-02-25 09:36:00,
2017-02-25 04:51:00,60.9,57.0,29.70,SSW,200,1.0,9.0,86,0.00,,,0.00,weatherlink.com 1.10,2017-02-25 09:51:00,
2017-02-25 05:06:00,61.1,57.0,29.70,SSW,201,1.0,7.0,86,0.00,,,0.00,weatherlink.com 1.10,2017-02-25 10:06:00,
2017-02-25 05:21:00,61.1,57.0,29.69,SSE,165,3.0,6.0,85,0.00,,,0.00,weatherlink.com 1.10,2017-02-25 10:21:00,
2017-02-25 05:36:00,60.9,56.0,29.69,NE,48,1.0,6.0,85,0.00,,,0.00,weatherlink.com 1.10,2017-02-25 10:36:00,
2017-02-25 05:51:00,60.7,56.0,29.68,SSW,194,4.0,9.0,85,0.00,,,0.00,weatherlink.com 1.10,2017-02-25 10:51:00,
2017-02-25 06:06:00,60.5,56.0,29.67,South,172,6.0,12.0,85,0.00,,,0.00,weatherlink.com 1.10,2017-02-25 11:06:00,
2017-02-25 06:22:00,60.5,56.0,29.68,SSW,196,2.0,14.0,84,0.00,,,0.00,weatherlink.com 1.10,2017-02-25 11:22:00,
2017-02-25 06:36:00,60.4,56.0,29.68,South,169,6.0,10.0,84,0.00,,,0.00,weatherlink.com 1.10,2017-02-25 11:36:00,
2017-02-25 06:51:00,60.3,56.0,29.68,SE,141,3.0,9.0,84,0.00,,,0.00,weatherlink.com 1.10,2017-02-25 11:51:00,
2017-02-25 07:06:00,60.2,55.0,29.68,West,280,1.0,8.0,84,0.00,,,0.00,weatherlink.com 1.10,2017-02-25 12:06:00,
2017-02-25 07:21:00,60.3,56.0,29.68,SSE,149,1.0,9.0,84,0.00,,,0.00,weatherlink.com 1.10,2017-02-25 12:21:00,
2017-02-25 07:36:00,60.4,56.0,29.68,South,186,5.0,9.0,84,0.00,,,0.00,weatherlink.com 1.10,2017-02-25 12:36:00,
2017-02-25 07:51:00,60.6,56.0,29.67,ENE,70,3.0,9.0,84,0.00,,,0.00,weatherlink.com 1.10,2017-02-25 12:51:00,
2017-02-25 08:06:00,61.1,56.0,29.67,SW,218,4.0,17.0,83,0.00,,,0.00,weatherlink.com 1.10,2017-02-25 13:06:00,
2017-02-25 08:21:00,61.7,57.0,29.66,SSW,197,3.0,10.0,83,0.00,,,0.00,weatherlink.com 1.10,2017-02-25 13:21:00,
2017-02-25 08:36:00,61.7,56.0,29.66,SSE,152,3.0,11.0,82,0.00,,,0.00,weatherlink.com 1.10,2017-02-25 13:36:00,
2017-02-25 08:52:00,61.9,56.0,29.65,SSE,149,0.0,6.0,82,0.00,,,0.00,weatherlink.com 1.10,2017-02-25 13:52:00,
2017-02-25 09:07:00,62.3,56.0,29.64,East,79,3.0,11.0,81,0.00,,,0.00,weatherlink.com 1.10,2017-02-25 14:07:00,
2017-02-25 09:22:00,62.6,56.0,29.64,SSE,159,4.0,17.0,80,0.00,,,0.00,weatherlink.com 1.10,2017-02-25 14:22:00,
2017-02-25 09:37:00,62.8,57.0,29.63,SSE,150,3.0,15.0,80,0.00,,,0.00,weatherlink.com 1.10,2017-02-25 14:37:00,
2017-02-25 09:52:00,63.5,57.0,29.63,WNW,295,2.0,14.0,78,0.00,,,0.00,weatherlink.com 1.10,2017-02-25 14:52:00,
2017-02-25 10:07:00,64.4,57.0,29.62,SSW,201,3.0,15.0,76,0.00,,,0.00,weatherlink.com 1.10,2017-02-25 15:07:00,
2017-02-25 10:22:00,65.0,56.0,29.62,East,93,8.0,16.0,73,0.00,,,0.00,weatherlink.com 1.10,2017-02-25 15:22:00,
2017-02-25 10:37:00,65.0,56.0,29.61,South,169,6.0,15.0,73,0.00,,,0.00,weatherlink.com 1.10,2017-02-25 15:37:00,
2017-02-25 10:52:00,66.1,57.0,29.61,SE,144,2.0,10.0,72,0.00,,,0.00,weatherlink.com 1.10,2017-02-25 15:52:00,
2017-02-25 11:08:00,66.8,56.0,29.61,SE,144,5.0,18.0,68,0.00,,,0.00,weatherlink.com 1.10,2017-02-25 16:08:00,
2017-02-25 11:22:00,66.5,56.0,29.60,SW,217,6.0,25.0,69,0.00,,,0.00,weatherlink.com 1.10,2017-02-25 16:22:00,
2017-02-25 11:37:00,66.9,56.0,29.59,SSW,192,6.0,17.0,69,0.00,,,0.00,weatherlink.com 1.10,2017-02-25 16:37:00,
2017-02-25 11:52:00,66.7,56.0,29.59,SSE,160,7.0,10.0,69,0.00,,,0.00,weatherlink.com 1.10,2017-02-25 16:52:00,
2017-02-25 12:07:00,66.8,56.0,29.59,SE,128,7.0,15.0,68,0.00,,,0.00,weatherlink.com 1.10,2017-02-25 17:07:00,
2017-02-25 12:22:00,68.0,56.0,29.57,WNW,295,5.0,18.0,66,0.00,,,0.00,weatherlink.com 1.10,2017-02-25 17:22:00,